| time (UTC) | temp F | wind direction | speed MPH | gust MPH | rain 1hr in | rain 24hr in | rain mn in | humidity % | barometer mb |
| 20260504110504 | 42 | 263 | 0.0 | 1.0 | 0.00 | 0.00 | 0.00 | 85 | 1009.3 |
| 20260504100555 | 40 | 274 | 0.0 | 0.0 | 0.00 | 0.00 | 0.00 | 84 | 1009.4 |
| 20260504081547 | 40 | 274 | 0.0 | 1.0 | 0.00 | 0.00 | 0.00 | 84 | 1009.3 |
| 20260504081049 | 40 | 274 | 0.0 | 1.0 | 0.00 | 0.00 | 0.00 | 84 | 1009.3 |
| 20260504080548 | 40 | 274 | 0.0 | 0.0 | 0.00 | 0.00 | 0.00 | 84 | 1009.3 |
| 20260504050526 | 37 | 265 | 1.0 | 2.0 | 0.00 | 0.00 | 0.00 | 85 | 1009.3 |
| 20260504050024 | 37 | 265 | 0.0 | 2.0 | 0.00 | 0.00 | 0.00 | 85 | 1009.3 |
| 20260504045523 | 36 | 265 | 1.0 | 2.0 | 0.00 | 0.00 | 0.00 | 85 | 1009.4 |
| 20260504045026 | 36 | 265 | 1.0 | 2.0 | 0.00 | 0.00 | 0.00 | 86 | 1009.4 |
| 20260504044530 | 36 | 265 | 0.0 | 2.0 | 0.00 | 0.00 | 0.00 | 86 | 1009.5 |
| 20260504044022 | 36 | 265 | 0.0 | 2.0 | 0.00 | 0.00 | 0.00 | 86 | 1009.4 |
| 20260504043522 | 36 | 265 | 0.0 | 2.0 | 0.00 | 0.00 | 0.00 | 85 | 1009.4 |
| 20260504043025 | 36 | 265 | 0.0 | 2.0 | 0.00 | 0.00 | 0.00 | 85 | 1009.4 |
| 20260504042522 | 36 | 265 | 0.0 | 2.0 | 0.00 | 0.00 | 0.00 | 84 | 1009.4 |
| 20260504042020 | 36 | 265 | 1.0 | 2.0 | 0.00 | 0.00 | 0.00 | 84 | 1009.4 |
| 20260504041522 | 36 | 265 | 0.0 | 2.0 | 0.00 | 0.00 | 0.00 | 84 | 1009.3 |
| 20260504041017 | 36 | 265 | 1.0 | 2.0 | 0.00 | 0.00 | 0.00 | 83 | 1009.2 |
| 20260504040517 | 36 | 265 | 0.0 | 2.0 | 0.00 | 0.00 | 0.00 | 83 | 1009.2 |
| 20260504040016 | 37 | 265 | 0.0 | 2.0 | 0.00 | 0.01 | 0.00 | 82 | 1009.2 |
| 20260504035519 | 37 | 265 | 0.0 | 2.0 | 0.00 | 0.01 | 0.00 | 82 | 1009.2 |
| 20260504035020 | 37 | 265 | 1.0 | 2.0 | 0.00 | 0.01 | 0.00 | 82 | 1009.2 |
| 20260504034515 | 37 | 265 | 0.0 | 2.0 | 0.00 | 0.01 | 0.00 | 82 | 1009.2 |
| 20260504034014 | 37 | 265 | 0.0 | 2.0 | 0.00 | 0.01 | 0.00 | 82 | 1009.2 |
| 20260504033514 | 37 | 267 | 1.0 | 2.0 | 0.00 | 0.01 | 0.00 | 81 | 1009.1 |
| 20260504033013 | 37 | 267 | 1.0 | 2.0 | 0.00 | 0.01 | 0.00 | 81 | 1009.1 |
| 20260504032513 | 37 | 266 | 1.0 | 2.0 | 0.00 | 0.01 | 0.00 | 81 | 1009.1 |
| 20260504032011 | 37 | 266 | 1.0 | 2.0 | 0.00 | 0.01 | 0.00 | 80 | 1009.0 |
| 20260504031510 | 38 | 266 | 1.0 | 2.0 | 0.00 | 0.01 | 0.00 | 80 | 1009.0 |
| 20260504031009 | 38 | 271 | 1.0 | 2.0 | 0.00 | 0.01 | 0.00 | 80 | 1009.1 |
| 20260504030508 | 38 | 271 | 1.0 | 2.0 | 0.00 | 0.01 | 0.00 | 79 | 1009.1 |
| 20260504030027 | 38 | 270 | 1.0 | 2.0 | 0.00 | 0.01 | 0.00 | 79 | 1009.1 |
| 20260504025512 | 38 | 270 | 0.0 | 2.0 | 0.00 | 0.01 | 0.00 | 79 | 1009.1 |
| 20260504025006 | 38 | 270 | 0.0 | 2.0 | 0.00 | 0.01 | 0.00 | 79 | 1009.0 |
| 20260504024508 | 38 | 270 | 1.0 | 2.0 | 0.00 | 0.01 | 0.00 | 78 | 1009.0 |
| 20260504024007 | 38 | 270 | 0.0 | 2.0 | 0.00 | 0.01 | 0.00 | 79 | 1009.0 |
| 20260504023509 | 38 | 270 | 0.0 | 2.0 | 0.00 | 0.01 | 0.00 | 78 | 1009.0 |
| 20260504023005 | 38 | 274 | 1.0 | 2.0 | 0.00 | 0.01 | 0.00 | 78 | 1008.9 |
| 20260504022504 | 38 | 278 | 1.0 | 2.0 | 0.00 | 0.01 | 0.00 | 78 | 1008.9 |
| 20260504022003 | 39 | 278 | 1.0 | 2.0 | 0.00 | 0.01 | 0.00 | 77 | 1008.9 |
| 20260504021502 | 39 | 280 | 1.0 | 2.0 | 0.00 | 0.01 | 0.00 | 77 | 1009.0 |
| 20260504021001 | 39 | 284 | 0.0 | 2.0 | 0.00 | 0.01 | 0.00 | 77 | 1008.9 |
| 20260504020503 | 39 | 286 | 1.0 | 2.0 | 0.00 | 0.01 | 0.00 | 77 | 1008.9 |
| 20260504015600 | 40 | 317 | 0.0 | 2.0 | 0.00 | 0.01 | 0.00 | 75 | 1008.7 |
| 20260504015103 | 40 | 317 | 0.0 | 2.0 | 0.00 | 0.01 | 0.00 | 74 | 1008.7 |
| 20260504014558 | 40 | 317 | 0.0 | 2.0 | 0.00 | 0.01 | 0.00 | 74 | 1008.7 |
| 20260504014057 | 40 | 317 | 0.0 | 2.0 | 0.00 | 0.01 | 0.00 | 75 | 1008.6 |
| 20260504013556 | 40 | 317 | 0.0 | 1.0 | 0.00 | 0.01 | 0.00 | 74 | 1008.6 |
| 20260504013109 | 40 | 317 | 0.0 | 1.0 | 0.00 | 0.01 | 0.00 | 73 | 1008.6 |
| 20260504012557 | 41 | 317 | 0.0 | 1.0 | 0.00 | 0.01 | 0.00 | 73 | 1008.6 |
| 20260504012057 | 41 | 317 | 0.0 | 1.0 | 0.00 | 0.01 | 0.00 | 71 | 1008.5 |
| 20260504011557 | 41 | 317 | 0.0 | 1.0 | 0.00 | 0.01 | 0.00 | 71 | 1008.4 |
| 20260504011056 | 41 | 317 | 0.0 | 2.0 | 0.00 | 0.01 | 0.00 | 72 | 1008.5 |
| 20260504010556 | 41 | 317 | 0.0 | 2.0 | 0.00 | 0.01 | 0.00 | 70 | 1008.4 |
| 20260504010112 | 42 | 340 | 0.0 | 0.0 | 0.00 | 0.01 | 0.00 | 70 | 1008.4 |
| 20260504005559 | 42 | 340 | 0.0 | 0.0 | 0.00 | 0.01 | 0.00 | 69 | 1008.2 |
| 20260504005055 | 42 | 26 | 0.0 | 0.0 | 0.00 | 0.01 | 0.00 | 70 | 1008.2 |
| 20260504004621 | 42 | 26 | 0.0 | 0.0 | 0.00 | 0.01 | 0.00 | 71 | 1008.1 |
| 20260504004055 | 43 | 26 | 0.0 | 0.0 | 0.00 | 0.01 | 0.00 | 70 | 1008.1 |
| 20260504003559 | 43 | 26 | 0.0 | 0.0 | 0.00 | 0.01 | 0.00 | 70 | 1008.0 |
| 20260504003055 | 43 | 26 | 0.0 | 0.0 | 0.00 | 0.01 | 0.00 | 65 | 1008.0 |
| 20260504002555 | 44 | 26 | 0.0 | 0.0 | 0.00 | 0.01 | 0.00 | 67 | 1007.9 |
| 20260504002056 | 44 | 26 | 0.0 | 0.0 | 0.00 | 0.01 | 0.00 | 67 | 1007.8 |
| 20260504001604 | 45 | 26 | 0.0 | 0.0 | 0.00 | 0.01 | 0.00 | 66 | 1007.9 |
| 20260504001055 | 45 | 26 | 0.0 | 0.0 | 0.00 | 0.01 | 0.00 | 63 | 1007.8 |
| 20260504000554 | 46 | 26 | 0.0 | 0.0 | 0.00 | 0.01 | 0.00 | 62 | 1007.8 |
| 20260504000055 | 46 | 26 | 0.0 | 0.0 | 0.00 | 0.02 | 0.00 | 59 | 1007.7 |
| 20260503235556 | 47 | 26 | 0.0 | 2.0 | 0.00 | 0.02 | 0.00 | 60 | 1007.6 |
| 20260503235053 | 47 | 26 | 0.0 | 2.0 | 0.00 | 0.02 | 0.00 | 59 | 1007.6 |
| 20260503234553 | 47 | 9 | 0.0 | 2.0 | 0.00 | 0.02 | 0.00 | 56 | 1007.5 |
| 20260503234053 | 48 | 11 | 0.0 | 2.0 | 0.00 | 0.02 | 0.00 | 56 | 1007.5 |
| 20260503233554 | 48 | 27 | 0.0 | 2.0 | 0.00 | 0.02 | 0.00 | 54 | 1007.3 |
| 20260503233156 | 48 | 63 | 0.0 | 1.0 | 0.00 | 0.02 | 0.00 | 55 | 1007.3 |
| 20260503232552 | 48 | 52 | 0.0 | 1.0 | 0.00 | 0.02 | 0.00 | 53 | 1007.3 |
| 20260503232052 | 49 | 63 | 0.0 | 5.0 | 0.00 | 0.02 | 0.00 | 53 | 1007.3 |
| 20260503231555 | 49 | 355 | 1.0 | 5.0 | 0.00 | 0.02 | 0.00 | 49 | 1007.3 |
| 20260503231052 | 50 | 342 | 0.0 | 4.0 | 0.00 | 0.02 | 0.00 | 48 | 1007.2 |
| 20260503230552 | 50 | 302 | 0.0 | 2.0 | 0.00 | 0.02 | 0.00 | 48 | 1007.2 |
| 20260503230059 | 50 | 313 | 1.0 | 5.0 | 0.00 | 0.02 | 0.00 | 46 | 1007.1 |
| 20260503225551 | 50 | 269 | 2.0 | 5.0 | 0.00 | 0.02 | 0.00 | 45 | 1007.0 |
| 20260503225051 | 50 | 338 | 1.0 | 6.0 | 0.00 | 0.02 | 0.00 | 48 | 1007.0 |
| 20260503224551 | 51 | 346 | 3.0 | 6.0 | 0.00 | 0.02 | 0.00 | 44 | 1007.0 |
| 20260503224051 | 51 | 35 | 3.0 | 9.0 | 0.00 | 0.02 | 0.00 | 44 | 1007.0 |
| 20260503223551 | 51 | 347 | 4.0 | 9.0 | 0.00 | 0.02 | 0.00 | 43 | 1006.9 |
| 20260503223057 | 51 | 327 | 3.0 | 5.0 | 0.00 | 0.02 | 0.00 | 45 | 1006.7 |
| 20260503222550 | 51 | 323 | 1.0 | 5.0 | 0.00 | 0.02 | 0.00 | 44 | 1006.7 |
| 20260503222050 | 51 | 334 | 1.0 | 10.0 | 0.00 | 0.02 | 0.00 | 43 | 1006.7 |
| 20260503221553 | 51 | 27 | 3.0 | 10.0 | 0.00 | 0.02 | 0.00 | 41 | 1006.6 |
| 20260503221052 | 52 | 296 | 4.0 | 10.0 | 0.00 | 0.02 | 0.00 | 42 | 1006.6 |
| 20260503220551 | 52 | 252 | 4.0 | 10.0 | 0.00 | 0.02 | 0.00 | 44 | 1006.5 |
| 20260503220049 | 51 | 336 | 4.0 | 7.0 | 0.00 | 0.02 | 0.00 | 43 | 1006.5 |
| 20260503215549 | 51 | 350 | 4.0 | 7.0 | 0.00 | 0.02 | 0.00 | 42 | 1006.5 |
| 20260503215049 | 52 | 348 | 2.0 | 10.0 | 0.00 | 0.02 | 0.00 | 43 | 1006.4 |
| 20260503214548 | 52 | 329 | 5.0 | 10.0 | 0.00 | 0.02 | 0.00 | 41 | 1006.4 |
| 20260503214049 | 51 | 223 | 4.0 | 7.0 | 0.00 | 0.02 | 0.00 | 42 | 1006.3 |
| 20260503213548 | 51 | 306 | 1.0 | 7.0 | 0.00 | 0.02 | 0.00 | 43 | 1006.3 |
| 20260503213100 | 51 | 33 | 3.0 | 10.0 | 0.00 | 0.02 | 0.00 | 42 | 1006.3 |
| 20260503212548 | 52 | 324 | 4.0 | 10.0 | 0.00 | 0.02 | 0.00 | 42 | 1006.2 |
| 20260503212048 | 52 | 351 | 2.0 | 6.0 | 0.00 | 0.02 | 0.00 | 43 | 1006.2 |
| 20260503211547 | 52 | 340 | 2.0 | 9.0 | 0.00 | 0.02 | 0.00 | 44 | 1006.1 |
| 20260503211047 | 52 | 86 | 2.0 | 12.0 | 0.00 | 0.02 | 0.00 | 43 | 1006.0 |
| 20260503210550 | 52 | 312 | 2.0 | 12.0 | 0.00 | 0.02 | 0.00 | 43 | 1005.9 |
| 20260503210055 | 52 | 312 | 3.0 | 9.0 | 0.00 | 0.07 | 0.00 | 42 | 1005.8 |
| 20260503205548 | 52 | 246 | 2.0 | 9.0 | 0.00 | 0.07 | 0.00 | 46 | 1005.9 |
| 20260503205046 | 52 | 337 | 3.0 | 9.0 | 0.00 | 0.07 | 0.00 | 43 | 1005.9 |
| 20260503204552 | 52 | 321 | 4.0 | 11.0 | 0.00 | 0.07 | 0.00 | 42 | 1005.8 |
| 20260503204046 | 52 | 33 | 4.0 | 11.0 | 0.00 | 0.07 | 0.00 | 43 | 1005.8 |
| 20260503203546 | 52 | 333 | 2.0 | 8.0 | 0.00 | 0.07 | 0.00 | 45 | 1005.7 |
| 20260503203045 | 51 | 286 | 4.0 | 11.0 | 0.00 | 0.07 | 0.00 | 42 | 1005.8 |
| 20260503202545 | 52 | 292 | 5.0 | 11.0 | 0.00 | 0.07 | 0.00 | 43 | 1005.7 |
| 20260503202045 | 52 | 30 | 3.0 | 10.0 | 0.00 | 0.07 | 0.00 | 42 | 1005.6 |
| 20260503201545 | 52 | 329 | 4.0 | 10.0 | 0.00 | 0.07 | 0.00 | 42 | 1005.5 |
| 20260503201043 | 52 | 292 | 4.0 | 11.0 | 0.00 | 0.07 | 0.00 | 42 | 1005.4 |
| 20260503200543 | 52 | 346 | 3.0 | 11.0 | 0.00 | 0.07 | 0.00 | 41 | 1005.5 |
| 20260503200049 | 53 | 331 | 4.0 | 8.0 | 0.00 | 0.18 | 0.00 | 40 | 1005.5 |
| 20260503195544 | 53 | 221 | 3.0 | 11.0 | 0.00 | 0.18 | 0.00 | 42 | 1005.5 |
| 20260503195043 | 54 | 23 | 3.0 | 11.0 | 0.00 | 0.18 | 0.00 | 46 | 1005.5 |
| 20260503194546 | 53 | 355 | 4.0 | 11.0 | 0.00 | 0.18 | 0.00 | 40 | 1005.5 |
| 20260503194042 | 52 | 244 | 4.0 | 9.0 | 0.00 | 0.18 | 0.00 | 44 | 1005.6 |
| 20260503193542 | 52 | 202 | 2.0 | 8.0 | 0.00 | 0.18 | 0.00 | 44 | 1005.4 |
| 20260503193050 | 52 | 313 | 3.0 | 10.0 | 0.00 | 0.18 | 0.00 | 44 | 1005.6 |
| 20260503192541 | 52 | 343 | 4.0 | 10.0 | 0.00 | 0.18 | 0.00 | 44 | 1005.6 |
| 20260503192041 | 52 | 309 | 2.0 | 9.0 | 0.00 | 0.18 | 0.00 | 46 | 1005.5 |
| 20260503191542 | 52 | 351 | 3.0 | 8.0 | 0.00 | 0.18 | 0.00 | 48 | 1005.4 |
| 20260503191041 | 52 | 350 | 4.0 | 8.0 | 0.00 | 0.18 | 0.00 | 46 | 1005.4 |
| 20260503190544 | 52 | 329 | 2.0 | 11.0 | 0.00 | 0.18 | 0.00 | 48 | 1005.4 |
| 20260503190040 | 53 | 19 | 3.0 | 11.0 | 0.00 | 0.22 | 0.00 | 47 | 1005.5 |
| 20260503185542 | 53 | 45 | 4.0 | 9.0 | 0.00 | 0.22 | 0.00 | 49 | 1005.5 |
| 20260503185038 | 52 | 267 | 1.0 | 10.0 | 0.00 | 0.22 | 0.00 | 44 | 1005.6 |
| 20260503184551 | 53 | 283 | 4.0 | 10.0 | 0.00 | 0.22 | 0.00 | 45 | 1005.6 |
| 20260503184040 | 54 | 318 | 3.0 | 12.0 | 0.00 | 0.22 | 0.00 | 45 | 1005.6 |
| 20260503183536 | 53 | 5 | 4.0 | 12.0 | 0.00 | 0.22 | 0.00 | 50 | 1005.5 |
| 20260503183052 | 53 | 5 | 4.0 | 14.0 | 0.00 | 0.22 | 0.00 | 49 | 1005.6 |
| 20260503182536 | 53 | 59 | 5.0 | 10.0 | 0.00 | 0.22 | 0.00 | 48 | 1005.5 |
| 20260503182034 | 53 | 94 | 5.0 | 8.0 | 0.00 | 0.22 | 0.00 | 48 | 1005.4 |
| 20260503181535 | 53 | 219 | 2.0 | 8.0 | 0.00 | 0.22 | 0.00 | 48 | 1005.5 |
| 20260503181034 | 53 | 244 | 2.0 | 8.0 | 0.00 | 0.22 | 0.00 | 51 | 1005.5 |
| 20260503180533 | 52 | 206 | 4.0 | 10.0 | 0.00 | 0.22 | 0.00 | 51 | 1005.5 |
| 20260503180040 | 52 | 324 | 5.0 | 10.0 | 0.00 | 0.22 | 0.00 | 49 | 1005.7 |
| 20260503175530 | 52 | 313 | 2.0 | 7.0 | 0.00 | 0.22 | 0.00 | 51 | 1005.7 |
| 20260503175030 | 51 | 333 | 3.0 | 15.0 | 0.00 | 0.22 | 0.00 | 54 | 1005.7 |
| 20260503174528 | 51 | 333 | 4.0 | 15.0 | 0.00 | 0.22 | 0.00 | 51 | 1005.8 |
| 20260503174028 | 51 | 38 | 3.0 | 10.0 | 0.00 | 0.22 | 0.00 | 51 | 1005.7 |
| 20260503173527 | 51 | 323 | 3.0 | 11.0 | 0.00 | 0.22 | 0.00 | 51 | 1005.7 |
| 20260503173037 | 51 | 20 | 3.0 | 11.0 | 0.00 | 0.22 | 0.00 | 53 | 1005.8 |
| 20260503172526 | 51 | 65 | 4.0 | 12.0 | 0.00 | 0.22 | 0.00 | 54 | 1005.8 |
| 20260503172024 | 50 | 275 | 3.0 | 12.0 | 0.00 | 0.22 | 0.00 | 56 | 1005.7 |
| 20260503171524 | 50 | 217 | 3.0 | 8.0 | 0.00 | 0.22 | 0.00 | 55 | 1005.7 |
| 20260503171025 | 50 | 29 | 3.0 | 8.0 | 0.00 | 0.22 | 0.00 | 56 | 1005.7 |
| 20260503170524 | 50 | 291 | 2.0 | 10.0 | 0.00 | 0.22 | 0.00 | 55 | 1005.7 |
| 20260503151011 | 47 | 337 | 5.0 | 10.0 | 0.00 | 0.22 | 0.00 | 70 | 1006.0 |
| 20260503150507 | 47 | 299 | 2.0 | 10.0 | 0.00 | 0.22 | 0.00 | 72 | 1006.0 |
| 20260503131051 | 43 | 292 | 6.0 | 10.0 | 0.00 | 0.22 | 0.00 | 87 | 1006.4 |
| 20260503130548 | 43 | 76 | 1.0 | 7.0 | 0.00 | 0.22 | 0.00 | 88 | 1006.5 |